TimeCST,TemperatureF,Dew PointF,Humidity,Sea Level PressureIn,VisibilityMPH,Wind Direction,Wind SpeedMPH,Gust SpeedMPH,PrecipitationIn,Events,Conditions,WindDirDegrees,DateUTC
12:52 AM,28.9,3.9,35,30.25,10.0,East,11.5,-,N/A,,Overcast,90,2013-02-20 06:52:00
1:52 AM,28.9,3.9,35,30.23,10.0,East,9.2,-,N/A,,Overcast,90,2013-02-20 07:52:00
2:52 AM,28.9,3.9,35,30.21,10.0,East,13.8,-,N/A,,Overcast,90,2013-02-20 08:52:00
3:52 AM,28.0,3.9,36,30.21,10.0,ESE,13.8,-,N/A,,Overcast,110,2013-02-20 09:52:00
4:52 AM,27.0,3.9,37,30.19,10.0,ESE,11.5,19.6,N/A,,Overcast,110,2013-02-20 10:52:00
5:52 AM,27.0,3.9,37,30.23,10.0,SE,11.5,-,N/A,,Overcast,130,2013-02-20 11:52:00
7:52 AM,27.0,8.1,45,30.23,4.0,ESE,13.8,21.9,0.00,Snow,Light Snow,110,2013-02-20 13:52:00
8:05 AM,26.6,8.6,47,30.21,2.5,SE,15.0,-,0.00,Snow,Light Snow,130,2013-02-20 14:05:00
8:20 AM,24.8,14.0,64,30.21,1.2,ESE,16.1,-,0.00,Snow,Light Snow,120,2013-02-20 14:20:00
8:36 AM,24.8,17.6,74,30.22,0.8,ESE,12.7,-,0.00,Snow,Light Snow,120,2013-02-20 14:36:00
8:52 AM,23.0,18.0,81,30.26,0.8,ESE,17.3,21.9,0.00,Snow,Light Snow,120,2013-02-20 14:52:00
9:05 AM,23.0,19.4,86,30.22,0.5,ESE,15.0,-,0.00,Fog-Snow,Snow,120,2013-02-20 15:05:00
9:52 AM,24.1,19.9,84,30.24,0.5,East,12.7,-,0.00,Fog-Snow,Snow,100,2013-02-20 15:52:00
9:59 AM,24.8,19.4,80,30.20,0.2,East,10.4,-,0.00,Fog-Snow,Heavy Snow,100,2013-02-20 15:59:00
10:24 AM,24.8,19.4,80,30.18,0.5,East,13.8,-,0.02,Fog-Snow,Snow,90,2013-02-20 16:24:00
10:29 AM,24.8,19.4,80,30.18,0.2,East,13.8,-,0.02,Fog-Snow,Heavy Snow,100,2013-02-20 16:29:00
11:52 AM,25.0,21.9,88,30.19,0.2,East,12.7,-,0.02,Fog-Snow,Snow,100,2013-02-20 17:52:00
12:52 PM,26.1,23.0,88,30.15,0.5,ESE,17.3,-,0.01,Fog-Snow,Snow,110,2013-02-20 18:52:00
1:22 PM,26.6,23.0,86,30.11,1.5,East,12.7,-,0.00,Snow,Light Snow,100,2013-02-20 19:22:00
1:34 PM,28.4,24.8,86,30.10,1.8,ESE,16.1,-,0.00,Snow,Light Snow,110,2013-02-20 19:34:00
1:52 PM,28.0,24.1,85,30.11,1.2,ESE,17.3,23.0,0.00,Snow,Light Snow,110,2013-02-20 19:52:00
2:44 PM,28.4,24.8,86,30.06,2.0,ESE,17.3,-,0.00,Snow,Light Snow,110,2013-02-20 20:44:00
2:52 PM,28.9,25.0,85,30.07,3.0,East,17.3,-,0.00,Snow,Light Snow,100,2013-02-20 20:52:00
3:18 PM,30.2,26.6,86,30.03,1.8,East,19.6,25.3,0.00,Snow,Light Snow,100,2013-02-20 21:18:00
3:52 PM,28.9,25.0,85,30.06,7.0,East,16.1,-,0.00,,Overcast,100,2013-02-20 21:52:00
4:52 PM,28.9,25.0,85,30.06,9.0,East,11.5,-,N/A,,Overcast,100,2013-02-20 22:52:00
5:52 PM,28.0,24.1,85,30.05,9.0,East,13.8,-,N/A,,Overcast,100,2013-02-20 23:52:00
6:50 PM,26.6,23.0,86,30.02,10.0,East,12.7,-,N/A,,Overcast,100,2013-02-21 00:50:00
6:52 PM,27.0,23.0,85,30.05,9.0,East,13.8,-,N/A,,Overcast,100,2013-02-21 00:52:00
7:19 PM,26.6,21.2,80,30.03,1.8,East,13.8,-,0.00,Snow,Light Snow,100,2013-02-21 01:19:00
7:28 PM,26.6,21.2,80,30.03,0.8,East,16.1,-,0.00,Snow,Light Snow,90,2013-02-21 01:28:00
7:52 PM,25.0,21.9,88,30.06,0.5,East,16.1,21.9,0.01,Fog-Snow,Snow,100,2013-02-21 01:52:00
8:36 PM,24.8,21.2,86,30.03,1.0,East,17.3,-,0.01,Snow,Light Snow,90,2013-02-21 02:36:00
8:59 PM,24.8,21.2,86,30.03,1.5,East,15.0,-,0.00,Snow,Light Snow,90,2013-02-21 02:59:00
9:52 PM,25.0,19.9,81,30.06,10.0,East,17.3,-,0.00,,Overcast,90,2013-02-21 03:52:00
10:47 PM,24.8,19.4,80,30.02,7.0,East,16.1,-,0.00,,Overcast,100,2013-02-21 04:47:00
10:52 PM,25.0,19.0,78,30.06,8.0,East,19.6,-,0.00,,Overcast,100,2013-02-21 04:52:00
11:52 PM,24.1,19.0,81,30.03,6.0,East,16.1,-,0.00,,Haze,90,2013-02-21 05:52:00